Regional Weather Roundup
Issued by NWS

Home | Current Version | Previous Version | Graphics & Text | Print | Product List | Glossary On
Versions: 1 2 3 4 5 6 7 8 9 10 11 12 13 14 15 16 17 18 19 20 21 22 23 24 25 26 27 28 29 30 31 32 33 34 35 36 37 38 39 40 41 42 43 44 45 46 47 48 49 50
000
ASUS43 KFSD 242202
RWRSD

WEATHER ROUNDUP FOR SOUTH DAKOTA
NATIONAL WEATHER SERVICE SIOUX FALLS SD
400 PM CST TUE JAN 24 2017

NOTE: "FAIR" INDICATES FEW OR NO CLOUDS BELOW 12,000 FEET WITH NO
SIGNIFICANT WEATHER AND/OR OBSTRUCTIONS TO VISIBILITY.


SDZ001>005-009-010-012>017-242300-
NORTHWEST AND NORTH CENTRAL SOUTH DAKOTA

CITY           SKY/WX    TMP DP  RH WIND       PRES   REMARKS
BUFFALO          N/A     20  14  77 NW20      29.77R WCI   4
FAITH            N/A     22  20  92 N17       29.82S WCI   8
MOBRIDGE       LGT SNOW  24  18  77 N14       29.82R WCI  12
$$

SDZ012>016-024>037-041>051-057-063-072>074-242300-
SOUTHWEST AND SOUTH CENTRAL SOUTH DAKOTA

CITY           SKY/WX    TMP DP  RH WIND       PRES   REMARKS
RAPID CTY ARPT LGT SNOW  20  17  88 N17       29.79R FOG     WCI   5
PIERRE         FOG       23  20  88 N23       29.77R VSB 1/2 WCI   7
CUSTER         LGT SNOW  15   9  76 N8        29.64R VSB 1   WCI   4
PINE RIDGE     SNOW      22  19  89 N12       29.75R VSB 1/2 WCI  10
SPEARFISH      LGT SNOW  19  18  93 NW9       29.80R VSB 1   WCI   9
WINNER         SNOW      30  28  92 NE18      29.67R VSB 1/2 WCI  18
$$

SDZ004>011-016>023-039-040-242300-
NORTHEAST SOUTH DAKOTA

CITY           SKY/WX    TMP DP  RH WIND       PRES   REMARKS
ABERDEEN       LGT SNOW  25  20  81 N15       29.82R WCI  13
WATERTOWN      CLOUDY    29  25  85 NE9       29.74S WCI  20
BROOKINGS      CLOUDY    28  26  92 NE14      29.72R FOG     WCI  17
SISSETON         N/A     30  29  96 N13       29.81R WCI  20
$$

SDZ017-020-022-023-036>040-048>070-242300-
SOUTHEAST SOUTH DAKOTA

CITY           SKY/WX    TMP DP  RH WIND       PRES   REMARKS
SIOUX FALLS    LGT SNOW  31  29  92 NE18      29.68S FOG     WCI  19
HURON          LGT SNOW  30  29  96 NE9       29.76R FOG     WCI  22
CHAMBERLAIN    LGT SNOW  32  31  99 N13       29.71R VSB 1   WCI  22
MITCHELL       LGT SNOW  32  30  92 NE16      29.72S FOG     WCI  21
YANKTON          N/A     30  27  86 NE22      29.62R VSB 1/4 WCI  17
$$

ABBREVIATIONS USED IN REMARKS
   TC - TEMPERATURE IN CELSIUS
  WCI - WIND CHILL INDEX
   HX - HEAT INDEX
  VSB - VISIBILITY




USA.gov is the U.S. government's official web portal to all federal, state and local government web resources and services.